Location: Caltech
(34.1382°N, 118.1253°W)
Time: 10:43:54
(UTC-07:00)

Cosmos 1943 Rocket - Visible Passes

Search period start: 18 September 2014 00:00
Search period end: 28 September 2014 00:00
Orbit: 811 x 846 km, 71.0° (Epoch: 18 September)

Date Brightness Start Highest point End Pass type
(mag) Time Alt. Az. Time Alt. Az. Time Alt. Az.
18 Sep 5.3 05:14:26 10° NE 05:16:04 11° NE 05:17:41 10° ENE visible
18 Sep 2.6 19:56:32 10° S 20:01:36 38° ESE 20:06:45 10° NE visible
18 Sep 4.2 21:40:51 10° WSW 21:45:24 25° WNW 21:50:01 10° N visible
19 Sep 2.8 19:37:43 10° SSE 19:42:37 32° ESE 19:47:34 10° NE visible
19 Sep 4.0 21:21:31 10° WSW 21:26:18 29° WNW 21:31:09 10° N visible
20 Sep 3.0 19:18:58 10° SSE 19:23:38 28° ESE 19:28:21 10° NE visible
20 Sep 3.8 21:02:14 10° SW 21:07:13 33° WNW 21:12:16 10° N visible
21 Sep 3.0 05:57:53 10° NNW 06:03:29 58° ENE 06:08:59 10° SE visible
21 Sep 3.6 20:42:59 10° SW 20:48:08 37° WNW 20:53:21 10° N visible
22 Sep 3.2 05:38:55 10° N 05:44:25 50° ENE 05:49:51 10° SE visible
22 Sep 3.4 20:23:46 10° SW 20:29:03 43° WNW 20:34:25 10° N visible
23 Sep 3.4 05:19:57 10° N 05:25:21 44° ENE 05:30:40 10° SE visible
23 Sep 3.1 20:04:35 10° SW 20:09:59 49° WNW 20:15:27 10° N visible
24 Sep 3.6 05:01:01 10° N 05:06:16 38° ENE 05:11:28 10° SE visible
24 Sep 2.9 19:45:26 10° SW 19:50:55 57° WNW 19:56:29 10° NNE visible
25 Sep 3.8 04:42:06 10° N 04:47:11 33° ENE 04:52:13 10° SE visible
25 Sep 2.7 19:26:19 10° SSW 19:31:52 66° WNW 19:37:29 10° NNE visible
26 Sep 4.0 04:23:12 10° N 04:28:06 29° ENE 04:32:56 10° ESE visible
26 Sep 2.9 06:06:49 10° NW 06:11:46 32° WSW 06:16:40 10° SSW visible
26 Sep 2.5 19:07:14 10° SSW 19:12:49 76° WNW 19:18:29 10° NNE visible
27 Sep 4.2 04:04:19 10° N 04:08:59 26° ENE 04:13:36 10° ESE visible
27 Sep 2.7 05:47:38 10° NW 05:52:46 37° WSW 05:57:52 10° S visible
27 Sep 5.3 20:36:53 10° WNW 20:38:20 11° NW 20:39:48 10° NW visible
